• In Germany
  • List of Countries
  • For 7 days
  • Water Temperature
  • Satellite Maps
  • Weather Map
  • Weather Widgets
  • user-avatar
    Login

    Hourly Weather Kyrdzhali

    Today, 18 August, Friday

    Time Temperature Precipitation Wind Pressure Humidity
    00:00 +21°C° 0 mm 3 mps 727 mmHg 46%
    01:00 +21°C° 0 mm 3 mps 727 mmHg 47%
    02:00 +21°C° 0 mm 4 mps 727 mmHg 46%
    03:00 +21°C° 0 mm 4 mps 727 mmHg 47%
    04:00 +20°C° 0 mm 3 mps 727 mmHg 48%
    05:00 +20°C° 0 mm 3 mps 727 mmHg 49%
    06:00 +22°C° 0 mm 4 mps 727 mmHg 43%
    07:00 +25°C° 0 mm 5 mps 728 mmHg 38%
    08:00 +27°C° 0 mm 5 mps 728 mmHg 33%
    09:00 +29°C° 0 mm 6 mps 728 mmHg 29%
    10:00 +30°C° 0 mm 6 mps 728 mmHg 26%
    11:00 +33°C° 0 mm 6 mps 728 mmHg 23%
    12:00 +34°C° 0 mm 6 mps 728 mmHg 22%
    13:00 +35°C° 0 mm 6 mps 728 mmHg 21%
    14:00 +35°C° 0 mm 6 mps 728 mmHg 19%
    15:00 +35°C° 0 mm 6 mps 728 mmHg 20%
    16:00 +35°C° 0 mm 6 mps 727 mmHg 21%
    17:00 +34°C° 0 mm 5 mps 727 mmHg 21%
    18:00 +32°C° 0 mm 4 mps 727 mmHg 25%
    19:00 +29°C° 0 mm 4 mps 727 mmHg 28%
    20:00 +27°C° 0 mm 3 mps 727 mmHg 32%
    21:00 +26°C° 0 mm 2 mps 727 mmHg 34%
    22:00 +25°C° 0 mm 2 mps 727 mmHg 37%
    23:00 +23°C° 0 mm 2 mps 727 mmHg 39%

    Tomorrow, 19 August, Saturday

    Time Temperature Precipitation Wind Pressure Humidity
    00:00 +23°C° 0 mm 2 mps 727 mmHg 41%
    01:00 +23°C° 0 mm 2 mps 727 mmHg 42%
    02:00 +21°C° 0 mm 2 mps 727 mmHg 43%
    03:00 +21°C° 0 mm 2 mps 727 mmHg 44%
    04:00 +20°C° 0 mm 2 mps 727 mmHg 44%
    05:00 +20°C° 0 mm 2 mps 727 mmHg 45%
    06:00 +22°C° 0 mm 3 mps 727 mmHg 41%
    07:00 +25°C° 0 mm 3 mps 728 mmHg 36%
    08:00 +27°C° 0 mm 3 mps 728 mmHg 32%
    09:00 +29°C° 0 mm 3 mps 728 mmHg 29%
    10:00 +32°C° 0 mm 4 mps 728 mmHg 25%
    11:00 +34°C° 0 mm 4 mps 728 mmHg 22%
    12:00 +34°C° 0 mm 4 mps 728 mmHg 20%
    13:00 +35°C° 0 mm 4 mps 728 mmHg 19%
    14:00 +36°C° 0 mm 3 mps 727 mmHg 18%
    15:00 +36°C° 0 mm 3 mps 727 mmHg 18%
    16:00 +36°C° 0 mm 3 mps 727 mmHg 18%
    17:00 +35°C° 0 mm 3 mps 726 mmHg 19%
    18:00 +33°C° 0 mm 3 mps 726 mmHg 22%
    19:00 +29°C° 0 mm 2 mps 726 mmHg 26%
    20:00 +27°C° 0 mm 2 mps 726 mmHg 30%
    21:00 +26°C° 0 mm 2 mps 726 mmHg 32%
    22:00 +25°C° 0 mm 2 mps 726 mmHg 35%
    23:00 +24°C° 0 mm 1 mps 727 mmHg 38%

    Day after tomorrow, 20 August, Sunday

    Time Temperature Precipitation Wind Pressure Humidity
    00:00 +23°C° 0 mm 1 mps 726 mmHg 39%
    01:00 +22°C° 0 mm 1 mps 726 mmHg 41%
    02:00 +22°C° 0 mm 1 mps 726 mmHg 42%
    03:00 +22°C° 0 mm 1 mps 726 mmHg 43%
    04:00 +20°C° 0 mm 2 mps 726 mmHg 44%
    05:00 +20°C° 0 mm 2 mps 726 mmHg 45%
    06:00 +23°C° 0 mm 2 mps 726 mmHg 41%
    07:00 +25°C° 0 mm 2 mps 726 mmHg 37%
    08:00 +27°C° 0 mm 2 mps 727 mmHg 34%
    09:00 +29°C° 0 mm 2 mps 727 mmHg 30%
    10:00 +31°C° 0 mm 2 mps 727 mmHg 26%
    11:00 +34°C° 0 mm 3 mps 727 mmHg 22%
    12:00 +34°C° 0 mm 3 mps 726 mmHg 21%
    13:00 +35°C° 0 mm 3 mps 726 mmHg 19%
    14:00 +36°C° 0 mm 4 mps 726 mmHg 18%
    15:00 +35°C° 0 mm 4 mps 725 mmHg 19%
    16:00 +35°C° 0 mm 3 mps 725 mmHg 20%
    17:00 +35°C° 0 mm 3 mps 724 mmHg 20%
    18:00 +31°C° 0 mm 3 mps 724 mmHg 24%
    19:00 +29°C° 0 mm 2 mps 724 mmHg 28%
    20:00 +27°C° 0 mm 2 mps 724 mmHg 33%
    21:00 +26°C° 0 mm 2 mps 724 mmHg 35%
    22:00 +25°C° 0 mm 2 mps 724 mmHg 38%
    23:00 +24°C° 0 mm 2 mps 724 mmHg 40%

    21 August, Monday

    Time Temperature Precipitation Wind Pressure Humidity
    00:00 +23°C° 0 mm 2 mps 724 mmHg 43%
    01:00 +23°C° 0 mm 2 mps 724 mmHg 45%
    02:00 +21°C° 0 mm 2 mps 724 mmHg 48%
    03:00 +21°C° 0 mm 2 mps 724 mmHg 48%
    04:00 +21°C° 0 mm 2 mps 724 mmHg 49%
    05:00 +21°C° 0 mm 2 mps 724 mmHg 50%
    06:00 +23°C° 0 mm 2 mps 724 mmHg 47%
    07:00 +25°C° 0 mm 3 mps 725 mmHg 44%
    08:00 +26°C° 0 mm 3 mps 725 mmHg 41%
    09:00 +28°C° 0 mm 3 mps 725 mmHg 38%
    10:00 +29°C° 0 mm 3 mps 725 mmHg 35%
    11:00 +32°C° 0 mm 4 mps 725 mmHg 32%
    12:00 +31°C° 0.1 mm 3 mps 725 mmHg 33%
    13:00 +31°C° 0.1 mm 3 mps 724 mmHg 34%
    14:00 +31°C° 0.1 mm 3 mps 724 mmHg 35%
    15:00 +29°C° 0.4 mm 3 mps 724 mmHg 40%
    16:00 +28°C° 0.4 mm 3 mps 724 mmHg 45%
    17:00 +27°C° 0.4 mm 3 mps 723 mmHg 50%
    18:00 +26°C° 0.7 mm 2 mps 724 mmHg 57%
    19:00 +24°C° 0.7 mm 2 mps 724 mmHg 64%
    20:00 +23°C° 0.7 mm 2 mps 724 mmHg 70%
    21:00 +21°C° 0.2 mm 2 mps 724 mmHg 72%
    22:00 +20°C° 0.2 mm 2 mps 725 mmHg 75%
    23:00 +19°C° 0.2 mm 2 mps 725 mmHg 77%

    22 August, Tuesday

    Time Temperature Precipitation Wind Pressure Humidity
    00:00 +19°C° 0 mm 2 mps 725 mmHg 74%
    01:00 +19°C° 0 mm 2 mps 725 mmHg 71%
    02:00 +19°C° 0 mm 2 mps 725 mmHg 69%
    03:00 +19°C° 0 mm 2 mps 725 mmHg 67%
    04:00 +18°C° 0 mm 2 mps 726 mmHg 66%
    05:00 +18°C° 0 mm 2 mps 726 mmHg 65%
    06:00 +19°C° 0 mm 2 mps 726 mmHg 60%
    07:00 +19°C° 0 mm 3 mps 727 mmHg 56%
    08:00 +20°C° 0 mm 3 mps 727 mmHg 51%
    09:00 +22°C° 0 mm 3 mps 727 mmHg 46%
    10:00 +24°C° 0 mm 3 mps 728 mmHg 41%
    11:00 +26°C° 0 mm 3 mps 728 mmHg 37%
    12:00 +26°C° 0 mm 3 mps 728 mmHg 35%
    13:00 +27°C° 0 mm 3 mps 727 mmHg 34%
    14:00 +27°C° 0 mm 2 mps 727 mmHg 32%
    15:00 +27°C° 0 mm 2 mps 727 mmHg 32%
    16:00 +28°C° 0 mm 2 mps 727 mmHg 31%
    17:00 +28°C° 0 mm 2 mps 727 mmHg 30%
    18:00 +26°C° 0 mm 2 mps 727 mmHg 36%
    19:00 +24°C° 0 mm 2 mps 727 mmHg 41%
    20:00 +22°C° 0 mm 1 mps 727 mmHg 46%
    21:00 +21°C° 0 mm 1 mps 727 mmHg 48%
    22:00 +19°C° 0 mm 2 mps 727 mmHg 50%
    23:00 +18°C° 0 mm 2 mps 728 mmHg 53%

    23 August, Wednesday

    Time Temperature Precipitation Wind Pressure Humidity
    00:00 +17°C° 0 mm 2 mps 728 mmHg 52%
    01:00 +17°C° 0 mm 2 mps 728 mmHg 52%
    02:00 +16°C° 0 mm 2 mps 728 mmHg 51%
    03:00 +16°C° 0 mm 2 mps 728 mmHg 51%
    04:00 +15°C° 0 mm 2 mps 728 mmHg 50%
    05:00 +15°C° 0 mm 2 mps 728 mmHg 50%
    06:00 +17°C° 0 mm 2 mps 728 mmHg 45%
    07:00 +19°C° 0 mm 2 mps 729 mmHg 41%
    08:00 +21°C° 0 mm 2 mps 729 mmHg 36%
    09:00 +24°C° 0 mm 2 mps 730 mmHg 32%
    10:00 +26°C° 0 mm 2 mps 730 mmHg 29%
    11:00 +28°C° 0 mm 2 mps 730 mmHg 25%
    12:00 +28°C° 0 mm 2 mps 730 mmHg 23%
    13:00 +29°C° 0 mm 2 mps 729 mmHg 21%
    14:00 +30°C° 0 mm 3 mps 729 mmHg 20%
    15:00 +30°C° 0 mm 3 mps 729 mmHg 20%
    16:00 +30°C° 0 mm 3 mps 729 mmHg 20%
    17:00 +29°C° 0 mm 3 mps 729 mmHg 21%
    18:00 +27°C° 0 mm 2 mps 729 mmHg 25%
    19:00 +24°C° 0 mm 2 mps 729 mmHg 29%
    20:00 +22°C° 0 mm 1 mps 729 mmHg 34%
    21:00 +21°C° 0 mm 1 mps 729 mmHg 37%
    22:00 +20°C° 0 mm 1 mps 729 mmHg 41%
    23:00 +19°C° 0 mm 2 mps 729 mmHg 44%
    Show more